Location: Byhalia Creek
(34.8270°N, 89.8040°W)
Time: 17:40:09
(UTC+00:00)

COSMOS 2428 - Pass Details

Date: 22 April 2026
Orbit: 843 x 855 km, 70.9° (Epoch: 9 May)

Event Time Altitude Azimuth Distance (km) Brightness Sun altitude
Rises 10:48:46 0° 332° (NNW) 3,422 5.8 -6.7°
Reaches altitude 10° 10:51:17 10° 327° (NNW) 2,481 5.0 -6.2°
Maximum altitude 10:56:45 49° 254° (WSW) 1,078 2.9 -5.1°
Drops below altitude 10° 11:02:10 10° 180° (S) 2,459 4.9 -4.1°
Sets 11:04:40 0° 175° (S) 3,389 5.7 -3.6°
